Weather History for Cleveland Cuyahoga, OH

Change the Weather History Date:

Thursday, December 20, 2012

  Actual Average Record
Temperature  
Mean Temperature 44 °F -  
Max Temperature 50 °F 33 °F 55 °F (2013)
Min Temperature 39 °F 24 °F 10 °F (2004)
Degree Days  
Heating Degree Days 20    
Moisture  
Dew Point 37 °F    
Average Humidity 77    
Maximum Humidity 93    
Minimum Humidity 61    
Precipitation  
Precipitation 0.00 in - - ()
Sea Level Pressure  
Sea Level Pressure 29.52 in    
Wind  
Wind Speed 15 mph (SSE)    
Max Wind Speed 21 mph    
Max Gust Speed 34 mph    
Visibility 8 miles    
Events Rain    
Averages and records for this station are not official NWS values.
T = Trace of Precipitation, MM = Missing Value Source: NWS Daily Summary

Daily Weather History Graph

Daily Weather History Graph

Search for Another Location

Airport:

Trip Planner

Search our weather history database for the weather conditions in past years. The results will help you decide how hot, cold, wet, or windy it might be!

Date:

Astronomy

Dec. 20, 2012 Rise Set
Actual Time 7:48 AM EST 4:58 PM EST
Civil Twilight 7:17 AM EST 5:30 PM EST
Nautical Twilight 6:42 AM EST 6:05 PM EST
Astronomical Twilight 6:08 AM EST 6:39 PM EST
Moon 12:19 PM EST (12/20) 12:30 AM EST (12/20)
Length of Visible Light 10h 12m
Length of Day
9h 09m
First Quarter, 55% of the Moon is Illuminated
Dec 20
First Quarter
Dec 28
Full
Jan 4
Last Quarter
Jan 11
New
Jan 18
First Quarter

Hourly Weather History & Observations

Time (EST) Temp. Windchill Dew Point Humidity Pressure Visibility Wind Dir Wind Speed Gust Speed Precip Events Conditions
6:45 AM 39.2 °F 32.0 °F 32.0 °F 75% 29.85 in 7.0 mi ESE 11.5 mph 23.0 mph N/A   Overcast
7:45 AM 39.2 °F 32.0 °F 32.0 °F 75% 29.81 in 7.0 mi SE 11.5 mph 23.0 mph N/A   Overcast
8:45 AM 41.0 °F 34.3 °F 32.0 °F 70% 29.76 in 10.0 mi SE 11.5 mph 23.0 mph N/A   Overcast
9:45 AM 41.0 °F 32.5 °F 32.0 °F 70% 29.68 in 10.0 mi SE 17.3 mph 28.8 mph N/A   Overcast
10:45 AM 42.8 °F 34.8 °F 32.0 °F 66% 29.66 in 10.0 mi SE 17.3 mph 32.2 mph N/A   Overcast
11:45 AM 44.6 °F 37.2 °F 32.0 °F 61% 29.65 in 10.0 mi SSE 17.3 mph 28.8 mph N/A   Overcast
12:00 PM 44.6 °F 37.2 °F 33.8 °F 66% 29.64 in 7.0 mi SSE 17.3 mph 28.8 mph N/A   Overcast
12:45 PM 46.4 °F 39.8 °F 33.8 °F 62% 29.62 in 6.0 mi South 16.1 mph 27.6 mph N/A Rain Light Rain Showers
1:45 PM 42.8 °F 35.1 °F 39.2 °F 87% 29.56 in 2.5 mi SSE 16.1 mph 27.6 mph N/A Rain Light Rain Showers
2:30 PM 42.8 °F 35.1 °F 39.2 °F 87% 29.52 in 3.0 mi SSE 16.1 mph 27.6 mph N/A Rain Light Rain Showers
2:45 PM 42.8 °F 35.1 °F 41.0 °F 93% 29.50 in 3.0 mi SSE 16.1 mph 27.6 mph N/A   Overcast
3:45 PM 44.6 °F 37.2 °F 41.0 °F 87% 29.45 in 3.0 mi SSE 17.3 mph 26.5 mph N/A   Overcast
4:45 PM 46.4 °F 39.2 °F 42.8 °F 87% 29.36 in 10.0 mi SSE 18.4 mph 33.4 mph N/A   Overcast
5:45 PM 46.4 °F 39.0 °F 42.8 °F 87% 29.33 in 10.0 mi South 19.6 mph 32.2 mph N/A   Light Drizzle
6:45 PM 46.4 °F 39.0 °F 44.6 °F 93% 29.31 in 4.0 mi SSE 19.6 mph 29.9 mph N/A   Light Drizzle
7:45 PM 48.2 °F - 44.6 °F 87% 29.28 in 10.0 mi SSE 16.1 mph 25.3 mph N/A   Light Drizzle
8:45 PM 50.0 °F - 44.6 °F 82% 29.27 in 7.0 mi South 18.4 mph 25.3 mph N/A   Light Drizzle
9:45 PM 46.4 °F 39.0 °F 37.4 °F 71% 29.30 in 10.0 mi SW 19.6 mph 28.8 mph N/A   Overcast
10:45 PM 44.6 °F 36.4 °F 33.8 °F 66% 29.31 in 20.0 mi WSW 20.7 mph 34.5 mph N/A   Overcast